User: anonymous
Location: Columbia
(38.9520°N, 92.3340°W)
Time: 12:28:09
(UTC-05:00)
Language:

Meteor 1-4 Rocket - Orbit

View from above orbital plane
View from above orbital plane
View from above satellite
View from above satellite

Ground track
Ground track

The orbit data is extracted from the following two-line orbital elements,

1 04394U 70037B   14258.74352989  .00004931  00000-0  21524-3 0  6704
2 04394 081.2447 110.9083 0046877 305.6296 054.0573 15.20922803411476
Epoch (UTC): 15 September 2014 17:50:40
Eccentricity: 0.0046877
inclination: 81.2447°
perigee height: 471 km
apogee height: 535 km
right ascension of ascending node: 110.9083°
argument of perigee: 305.6296°
revolutions per day: 15.20922803
mean anomaly at epoch: 54.0573°
orbit number at epoch: 41147

The dashed part of the orbit path shows where the satellite is in the earth's shadow,  

DLR